Regional Weather Roundup
Issued by NWS Charleston, WV

Home | Current Version | Previous Version | Graphics & Text | Print | Product List | Glossary On
Versions: 1 2 3 4 5 6 7 8 9 10 11 12 13 14 15 16 17 18 19 20 21 22 23 24 25 26 27 28
000
ASUS41 KRLX 210410
RWRRLX
West Virginia Regional Weather Roundup
National Weather Service Charleston WV
1200 AM EDT SAT APR 21 2018

Note: "fair" indicates few or no clouds below 12,000 feet with no
significant weather and/or obstructions to visibility.

WVZ003-210500-
Northern Panhandle of West Virginia

CITY           SKY/WX    TMP DP  RH WIND       PRES   REMARKS
WHEELING       FAIR      42  18  37 N3        30.42R
$$

WVZ009-210500-
Northwest West Virginia

CITY           SKY/WX    TMP DP  RH WIND       PRES   REMARKS
PARKERSBURG    FAIR      40  27  59 N5        30.45R
$$

WVZ006-210500-
Western West Virginia

CITY           SKY/WX    TMP DP  RH WIND       PRES   REMARKS
HUNTINGTON     FAIR      50  25  37 N3        30.40S
$$

WVZ015-210500-
West Central West Virginia

CITY           SKY/WX    TMP DP  RH WIND       PRES   REMARKS
CHARLESTON     FAIR      43  25  49 CALM      30.40S
$$

WVZ022-031-210500-
North Central West Virginia

CITY           SKY/WX    TMP DP  RH WIND       PRES   REMARKS
CLARKSBURG     FAIR      41  25  53 CALM      30.40S
MORGANTOWN     FAIR      42  20  41 N5        30.42R
$$

WVZ025-035-042-045-210500-
Southern West Virginia

CITY           SKY/WX    TMP DP  RH WIND       PRES   REMARKS
BECKLEY        FAIR      40  20  44 NE5       30.37F
LOGAN          FAIR      46  19  34 CALM      30.38S
BLUEFIELD      FAIR      42  14  32 NE3       30.37F
LEWISBURG      FAIR      37  22  56 CALM      30.38S
$$

WVZ047-210500-
Northern Mountains of West Virginia

CITY           SKY/WX    TMP DP  RH WIND       PRES   REMARKS
ELKINS         FAIR      31  25  78 CALM      30.39S
$$

WVZ052-210500-
Eastern Panhandle of West Virginia

CITY           SKY/WX    TMP DP  RH WIND       PRES   REMARKS
MARTINSBURG    FAIR      47  22  37 NW6       30.38R
PETERSBURG     FAIR      34  28  77 W3        30.39S
$$




USA.gov is the U.S. government's official web portal to all federal, state and local government web resources and services.